Wind_Speed
37 38 39 41 43 44 46 47 49 50 50 51 52 51 52 53 51 50 50 50 52 51 49 46 41 37 33 28 24 21 16 12 11 10 8 8 9 10 9 10 11 10 8 7 6 2 1 3 4 5 6 4 2 1 1 1 1 1 2 3 6 8 9 11 11 12 16 19 23 24 23 24 25 23 23 24 21 20 22 23 24 25 25 24 24 24 24 24
38 38 40 41 42 43 45 46 47 48 49 49 50 50 51 52 51 49 49 50 51 52 50 47 44 39 35 30 25 21 17 13 11 10 9 7 7 8 9 9 9 8 6 4 4 4 1 4 5 5 6 5 3 0 0 1 1 1 0 2 5 7 9 11 11 12 16 20 23 24 24 25 25 24 23 24 22 21 24 25 26 26 27 27 27 26 25 26
38 39 40 41 42 43 44 45 45 47 47 48 48 50 50 51 51 49 48 49 50 51 51 49 45 42 37 32 27 22 19 15 12 10 9 7 7 7 8 8 6 5 3 2 4 4 3 4 4 5 5 4 3 3 2 2 2 2 1 2 4 6 9 11 11 13 16 20 22 23 23 23 23 23 23 24 24 23 24 24 25 27 28 28 28 28 28 29
38 38 39 40 41 42 42 43 44 45 46 46 47 48 49 50 50 49 47 48 49 50 51 50 47 44 40 35 29 23 20 17 13 10 8 7 8 7 6 6 5 4 2 3 4 4 5 4 4 5 3 4 5 7 6 4 3 2 2 3 4 6 9 12 12 13 15 18 20 21 21 21 21 22 23 25 26 25 24 24 25 26 27 26 26 27 29 31
37 38 39 39 40 40 41 41 42 43 44 44 45 47 48 49 50 49 47 47 48 49 50 51 48 46 42 37 31 25 20 18 14 11 8 7 7 7 6 5 5 5 3 3 4 4 6 5 4 4 3 4 7 8 7 6 4 4 5 5 6 7 9 11 13 14 15 17 18 19 20 20 20 20 22 24 27 26 26 25 25 25 26 27 29 30 31 31
38 37 37 38 39 39 40 40 40 41 42 42 43 45 47 48 49 49 47 46 47 48 49 50 49 47 44 39 33 27 21 18 15 12 8 7 6 5 5 4 5 5 4 3 3 5 5 4 5 4 4 6 8 9 9 8 7 7 8 8 9 9 9 10 12 14 15 18 19 19 20 20 20 20 22 24 26 28 28 28 28 28 29 30 30 26 23 22
40 39 37 37 38 38 39 39 39 40 40 40 41 43 46 47 47 48 47 45 45 46 48 49 50 48 45 41 35 29 23 18 16 13 9 6 5 4 4 4 4 3 3 2 2 4 3 3 5 6 6 7 9 11 11 10 9 9 10 11 10 10 11 11 12 13 15 18 19 21 21 22 22 23 24 25 27 28 29 30 30 30 31 29 26 21 17 15
42 42 40 38 37 37 38 38 37 38 39 39 39 41 44 45 46 47 46 44 44 45 46 48 49 49 46 42 36 30 24 19 15 13 10 7 7 6 3 3 2 3 4 4 2 2 2 3 5 8 9 8 10 12 11 8 6 7 8 9 9 9 10 11 11 13 15 17 19 20 21 22 23 24 26 27 27 28 29 29 29 28 27 23 18 16 13 9
44 44 42 40 38 37 36 36 36 37 37 37 38 39 42 44 45 47 46 43 43 44 45 46 48 49 47 43 38 31 24 19 15 12 10 8 10 9 4 2 3 5 6 7 5 4 5 6 7 9 10 10 10 9 7 4 2 3 4 5 5 4 5 6 7 9 12 15 18 19 20 21 21 23 24 25 26 26 26 23 21 20 16 10 6 5 4 2
45 46 45 42 40 37 36 35 35 35 36 35 36 38 40 42 43 45 45 43 42 42 44 45 47 48 47 44 39 32 24 19 14 11 10 11 11 9 4 2 4 6 8 9 8 8 9 10 10 10 11 10 7 4 2 2 1 1 2 2 2 2 2 3 4 5 6 8 11 12 14 15 16 17 16 16 17 17 16 13 12 11 5 0 2 3 4 5
46 46 47 45 42 39 36 35 34 34 34 34 34 37 39 40 42 44 45 43 41 41 42 44 45 47 47 45 40 33 24 18 14 11 12 14 13 10 6 4 5 7 8 8 9 10 11 11 11 10 9 6 1 2 3 2 1 2 2 2 2 2 2 2 2 2 1 2 3 4 6 8 9 8 5 5 6 7 6 4 3 2 4 6 6 7 6 6
46 47 48 48 45 42 37 35 34 33 33 33 33 35 37 38 40 42 44 43 41 40 41 42 44 46 47 45 41 33 25 18 14 13 14 15 13 9 7 5 6 9 9 8 9 11 12 12 11 8 5 2 2 3 3 2 2 3 3 2 2 2 2 1 0 1 1 1 1 2 2 3 3 0 2 3 4 5 5 4 4 6 8 9 10 10 8 6
47 47 48 49 48 46 40 35 33 33 32 32 31 33 35 36 38 40 42 43 41 39 39 41 43 45 46 45 42 34 26 19 14 15 15 14 12 9 8 6 7 10 10 9 9 11 12 11 8 3 3 3 2 2 2 2 3 4 4 2 1 2 3 3 3 3 3 2 2 2 2 2 2 3 4 6 7 8 7 6 6 6 8 9 10 9 8 7
47 47 48 49 50 49 44 37 33 32 32 31 30 31 33 35 37 38 41 42 41 39 38 40 41 43 45 45 41 35 27 20 16 15 14 13 11 9 7 6 7 9 10 9 8 9 9 6 2 2 3 2 1 1 2 3 4 5 4 2 1 2 3 3 4 4 5 3 2 4 4 5 4 2 5 7 7 7 7 6 5 6 7 8 8 7 7 6
46 47 48 49 50 51 48 42 35 32 31 30 30 30 31 33 35 37 39 41 41 39 37 38 40 42 44 44 41 36 27 21 18 15 13 11 10 8 7 6 6 6 7 8 6 5 4 1 3 5 5 3 0 2 3 4 5 5 4 4 4 4 4 4 4 5 6 4 3 5 7 9 6 4 6 7 7 8 7 6 6 7 8 8 8 7 7 6
46 46 47 49 51 52 52 48 39 33 30 29 29 29 30 32 34 36 37 39 40 39 37 37 39 41 43 44 42 36 28 22 19 15 11 10 8 8 8 7 6 4 4 6 5 3 3 6 8 8 5 1 2 4 4 4 5 5 6 7 6 6 6 5 6 6 6 5 5 7 8 9 10 9 9 8 7 8 8 7 8 9 9 9 8 7 6 7
45 46 47 49 51 52 53 52 45 35 30 29 29 29 29 31 33 34 36 37 39 39 37 37 39 40 43 44 42 38 30 24 20 15 11 9 7 7 8 7 6 3 4 6 5 4 6 9 9 6 3 2 4 4 3 3 6 7 8 8 7 7 6 6 7 7 7 7 6 9 8 6 9 12 11 10 9 9 8 8 9 9 8 8 8 6 5 6
45 45 46 48 50 52 54 54 49 38 30 29 29 28 29 30 31 33 35 36 37 38 37 36 38 40 42 44 42 38 31 25 21 16 11 9 6 8 8 7 6 4 7 8 7 8 9 10 8 5 3 3 4 4 2 5 7 7 8 8 8 8 7 7 8 8 8 8 7 9 9 4 5 9 10 11 11 10 9 8 9 8 7 7 7 7 5 5
45 45 45 46 49 52 53 54 52 42 33 30 29 28 28 29 30 33 34 35 36 37 36 35 37 39 41 43 42 38 31 25 20 15 12 9 7 8 8 8 6 5 9 10 11 12 11 9 7 5 3 2 4 4 3 6 7 7 7 8 8 9 9 8 9 8 8 9 9 9 10 6 3 5 6 7 8 9 9 9 9 8 7 7 7 7 7 8
45 44 44 45 47 50 52 54 52 45 37 31 29 28 28 28 30 32 33 34 35 36 35 34 36 38 40 42 41 38 31 23 18 14 12 9 7 9 9 8 6 7 11 13 15 15 12 9 8 6 4 2 3 3 3 6 6 6 7 8 8 10 10 9 9 9 8 10 10 9 9 7 5 4 4 4 5 7 9 9 9 9 8 8 8 9 11 12
45 44 43 44 46 48 51 53 52 48 42 34 29 28 27 27 29 30 32 33 34 34 34 33 35 38 39 41 40 37 30 23 17 13 12 9 7 9 9 9 7 7 11 15 17 15 12 10 9 6 4 2 2 3 3 5 6 5 6 7 7 8 10 9 8 8 7 9 11 8 7 7 6 4 4 3 2 5 8 9 9 9 9 9 11 12 13 13
45 44 43 43 45 47 49 52 52 50 46 39 31 28 28 27 28 29 31 33 33 33 33 32 34 37 38 39 40 37 30 23 16 13 12 9 7 9 9 10 9 8 11 15 17 15 12 11 9 6 3 1 2 1 3 5 5 5 4 6 7 6 8 10 9 7 6 7 9 8 6 6 5 4 4 3 2 4 8 9 9 9 10 12 13 13 13 13
44 43 43 43 44 46 48 50 51 50 50 45 35 30 28 27 28 29 30 32 33 32 32 32 33 36 37 39 40 37 30 23 17 12 12 10 7 8 10 11 11 10 12 16 17 15 12 10 9 6 3 2 3 2 5 7 6 5 4 6 7 7 8 9 9 8 6 5 7 7 6 6 4 4 4 4 4 7 9 9 10 11 12 13 14 13 13 13
44 43 43 43 44 46 48 50 50 50 51 48 39 32 29 27 27 28 28 30 32 31 31 31 32 34 36 38 40 38 30 23 17 12 12 10 7 8 11 12 12 11 13 16 17 15 13 10 7 6 5 5 3 4 7 8 7 6 5 6 7 7 7 8 8 7 6 6 5 4 5 5 4 3 4 5 6 9 9 10 11 12 13 13 13 13 14 14
43 43 43 44 45 47 49 50 50 49 50 50 43 35 30 28 27 27 27 29 31 30 29 30 31 33 35 37 39 38 31 23 17 13 13 10 7 9 11 12 13 13 14 15 16 15 13 10 7 6 6 6 4 7 9 9 9 7 7 7 8 7 6 6 6 6 5 7 6 3 4 5 5 4 5 6 9 10 10 11 12 13 12 12 12 14 14 15
43 43 44 45 46 47 49 51 51 50 50 51 47 39 32 28 27 27 27 28 29 29 28 28 29 31 34 36 38 38 31 23 17 13 13 10 6 8 10 12 13 13 14 15 14 13 12 11 9 8 8 7 6 9 11 11 10 9 8 7 6 6 5 4 5 5 6 7 7 6 6 6 6 7 7 9 11 12 12 13 13 11 11 12 13 14 15 14
43 44 44 46 47 48 50 52 52 51 51 51 49 44 36 30 28 27 26 27 28 28 27 28 28 30 32 35 38 38 32 23 17 14 13 9 6 8 9 10 12 14 15 15 14 12 12 11 11 9 8 7 9 10 11 11 11 9 8 7 6 6 6 5 7 8 9 9 10 10 9 8 9 11 12 13 13 13 14 14 13 11 11 13 14 14 14 14
44 44 45 47 48 49 51 53 53 52 53 52 49 47 41 34 30 28 27 27 27 27 26 26 27 28 31 34 36 37 33 24 17 15 12 9 6 7 8 9 11 13 15 16 14 12 12 12 11 10 8 8 11 11 11 12 10 8 8 8 8 8 9 8 10 11 11 11 12 12 13 13 13 15 17 16 15 14 14 13 12 12 13 13 13 13 13 13
45 45 46 48 49 50 52 53 54 53 54 53 50 47 44 38 32 29 27 27 27 25 25 25 26 27 29 32 35 37 34 25 19 15 12 8 6 6 8 10 12 13 15 16 15 13 13 13 11 10 8 10 13 12 12 13 11 8 8 8 8 10 11 10 11 12 13 12 13 13 15 15 16 17 18 17 16 14 12 12 13 14 14 13 12 12 12 12
46 46 47 49 50 51 53 54 54 54 55 54 52 48 45 42 36 31 27 26 26 24 24 24 24 25 27 31 34 36 35 27 20 16 12 9 6 6 8 10 12 13 15 16 16 14 14 14 12 10 9 12 14 13 13 13 9 9 9 7 7 9 11 11 11 12 13 13 13 14 15 15 16 17 17 16 14 13 12 12 14 14 14 13 12 11 11 11
47 47 48 49 50 52 53 54 54 54 55 55 53 50 47 45 40 33 28 26 25 24 22 22 22 23 25 29 32 34 35 29 21 15 12 9 6 5 7 9 11 12 13 16 16 16 16 14 13 11 11 14 15 13 13 12 9 11 10 7 8 9 11 11 11 12 12 13 13 13 14 14 14 15 15 14 13 12 12 13 14 14 13 12 11 11 10 9
48 48 49 49 51 52 54 55 54 55 56 56 55 52 50 47 42 35 30 27 25 24 22 21 20 21 23 26 29 32 34 30 22 16 13 9 5 4 5 8 11 11 13 15 16 17 16 15 14 13 13 14 14 13 14 11 9 9 9 9 9 10 11 11 11 11 11 12 12 12 13 13 13 12 13 13 13 14 13 13 13 13 13 12 11 9 9 8
49 49 50 50 51 53 55 56 55 55 56 57 56 54 53 49 43 38 32 28 26 25 22 20 19 20 21 24 27 30 33 30 23 17 14 10 5 4 4 8 11 12 13 14 15 16 16 16 15 14 14 14 13 13 12 9 6 5 8 10 9 10 11 11 10 10 10 11 11 11 11 11 12 12 12 13 15 15 14 13 12 12 11 11 10 8 7 7
49 49 50 51 52 53 56 57 55 55 57 58 57 56 55 49 44 40 35 30 27 26 22 20 19 18 20 22 26 28 31 31 25 18 14 11 7 5 5 8 11 13 14 15 14 15 16 16 15 14 15 14 13 12 11 8 6 4 6 9 8 9 10 10 10 10 10 11 10 10 10 10 11 12 13 14 15 15 15 13 11 10 10 9 8 7 7 6
50 50 51 52 53 54 56 57 56 55 57 59 58 57 55 50 45 41 36 31 28 26 23 20 18 18 19 21 24 27 30 31 27 20 15 12 8 6 7 9 12 14 16 16 15 15 15 16 15 14 15 13 12 12 11 9 7 5 5 7 7 8 8 9 10 10 10 10 10 10 10 10 11 11 13 14 14 14 14 13 10 9 8 8 7 6 6 5
51 51 51 53 54 55 56 57 56 56 57 59 59 58 55 52 47 41 35 32 28 27 24 21 19 17 18 19 22 25 28 30 28 22 15 12 9 7 8 10 13 15 16 17 15 15 16 16 16 15 16 14 12 13 12 11 9 8 7 7 8 8 8 8 8 9 8 9 9 10 10 10 10 11 12 12 13 13 13 11 9 7 7 6 6 5 5 5
52 51 52 53 54 55 56 57 57 56 58 60 59 58 56 54 49 41 36 33 29 27 25 22 19 17 17 19 21 23 26 29 28 24 17 12 9 9 11 13 15 17 18 18 17 16 17 17 17 17 17 16 15 15 14 13 12 11 10 9 10 10 9 8 8 8 7 7 8 8 10 10 10 10 10 10 11 12 12 10 8 7 5 5 4 3 4 5
52 52 53 54 55 55 57 57 57 57 58 60 60 58 57 56 50 41 36 33 31 27 24 22 19 17 17 18 20 21 24 27 27 25 19 13 11 10 12 15 16 17 18 19 20 20 20 19 19 19 19 18 17 16 16 15 13 13 12 11 11 12 11 10 8 7 6 6 7 7 9 10 10 10 9 8 9 10 10 8 6 5 4 3 2 2 3 5
53 53 54 55 55 56 57 58 58 58 59 60 61 59 59 57 49 40 34 32 31 27 24 23 20 17 17 18 19 20 22 25 26 24 20 15 12 11 13 17 18 19 20 22 23 24 23 21 21 22 21 21 20 20 19 17 14 13 13 13 12 13 13 11 10 8 7 7 8 8 9 10 10 10 9 8 8 9 8 7 5 3 2 1 1 2 4 5
55 54 55 56 56 56 57 59 59 59 60 61 62 60 60 57 49 40 33 30 31 28 25 24 21 17 17 17 18 19 20 23 25 24 20 15 13 13 14 18 20 22 24 25 26 26 25 24 23 23 23 23 23 23 22 21 18 14 14 15 15 15 15 13 12 10 9 9 8 8 8 9 10 10 9 8 8 9 8 7 5 3 2 1 2 3 5 6
56 55 55 57 57 57 58 59 60 61 61 62 62 62 61 58 50 40 33 29 30 29 25 25 23 19 17 18 17 18 19 21 24 24 21 16 15 15 16 19 21 23 25 26 27 27 27 26 26 26 26 25 24 24 24 24 21 18 17 18 18 17 17 15 14 13 12 11 9 8 8 9 10 10 10 10 9 9 9 8 6 4 3 2 3 5 7 8
57 56 56 57 58 58 58 59 60 62 62 62 63 63 62 60 52 42 33 28 29 29 26 25 24 20 18 18 17 18 19 20 22 23 21 17 15 15 17 20 22 24 25 26 27 27 28 29 29 29 29 26 24 24 24 24 23 22 22 20 20 19 18 16 15 15 14 12 11 10 9 9 10 10 10 10 10 9 9 9 7 6 5 4 5 7 9 10
57 56 56 57 58 58 59 60 61 62 63 63 63 64 63 62 54 43 34 29 29 29 27 26 25 22 19 18 18 19 18 19 21 22 22 19 15 13 16 22 24 24 24 26 27 28 29 30 31 31 30 29 27 25 24 24 24 23 22 21 21 21 20 17 17 17 16 14 13 12 11 10 10 10 10 10 10 9 9 9 8 7 7 7 8 9 11 12
57 56 56 57 58 59 60 60 61 62 63 63 63 64 64 63 56 44 34 28 29 30 29 28 28 25 20 18 19 20 19 18 20 22 22 19 14 12 16 22 25 24 23 25 26 27 29 30 31 31 31 31 30 30 28 26 25 24 22 21 22 23 22 20 19 19 18 16 15 13 12 11 11 11 11 11 10 9 9 9 8 8 8 9 10 11 13 14
58 56 55 57 59 60 60 61 62 63 64 63 64 64 64 63 56 44 34 28 29 31 31 30 30 27 22 19 20 20 19 18 19 21 21 18 13 12 17 23 25 23 22 23 24 25 26 29 30 31 31 32 32 33 32 30 28 26 24 23 23 24 24 23 22 21 20 19 17 15 14 13 12 12 11 10 10 10 10 9 9 9 9 11 12 12 13 15
59 57 56 58 60 61 61 62 63 64 64 64 64 65 65 62 55 44 34 30 31 33 33 31 31 29 23 20 21 21 20 19 19 20 20 17 13 13 17 22 24 23 21 20 22 23 24 26 28 29 30 31 32 33 33 33 32 30 28 26 25 26 26 25 24 23 22 20 19 18 17 15 14 14 12 11 10 11 11 10 10 10 11 12 13 12 14 16
60 59 58 59 61 63 63 64 64 65 64 65 65 66 66 63 54 43 35 31 32 35 34 32 32 30 26 22 21 22 21 19 19 20 20 17 15 14 16 19 21 22 21 20 22 23 24 25 27 28 28 29 30 31 32 34 34 32 30 29 28 28 28 28 26 25 24 23 22 21 19 17 17 16 15 13 12 12 13 13 11 11 12 14 15 14 14 16
62 62 61 61 62 65 65 65 66 66 66 66 66 67 67 63 53 43 35 32 33 36 36 33 33 33 29 23 22 24 22 20 19 20 20 18 16 15 16 17 18 20 20 20 21 22 23 26 27 28 27 27 28 29 31 32 33 33 32 31 31 30 30 30 28 27 26 24 23 23 22 20 19 18 17 15 15 15 15 15 13 13 15 17 17 16 16 17
65 65 64 64 64 66 67 67 67 67 67 67 68 69 68 62 52 42 35 32 34 38 37 35 35 35 31 25 23 25 24 21 19 19 20 19 17 16 16 17 18 20 20 20 20 22 24 26 26 26 25 25 26 28 30 32 33 33 33 32 32 32 32 32 32 30 27 26 25 24 23 23 21 20 18 17 17 17 17 17 16 16 18 19 19 18 19 19
67 67 68 67 67 68 69 69 69 69 69 69 69 71 68 61 51 42 34 31 35 39 38 38 38 37 32 26 24 25 25 23 20 19 20 19 18 17 17 18 19 20 20 20 21 22 24 25 25 25 24 23 24 26 29 31 32 33 33 33 33 33 33 34 34 32 29 28 26 25 25 25 24 23 21 19 19 19 19 19 18 18 20 22 22 21 21 22
70 70 70 70 70 70 71 71 71 71 71 71 71 71 68 58 49 41 34 32 38 41 41 41 40 38 33 27 25 26 27 25 21 19 19 19 18 18 18 18 19 19 20 21 22 23 23 24 25 25 24 24 24 25 28 30 31 33 34 34 34 34 35 35 35 33 32 29 28 27 27 27 27 26 24 22 21 21 21 20 20 20 21 24 24 24 24 25
72 72 73 73 73 73 73 73 73 73 73 73 72 71 65 56 48 41 36 36 42 45 44 44 41 38 35 29 26 29 29 26 23 20 18 19 18 18 18 18 18 19 20 22 24 25 24 23 24 24 24 25 24 24 26 29 31 34 35 35 35 35 36 36 35 34 33 31 30 29 28 29 28 27 26 25 24 23 23 22 21 21 22 24 26 26 26 27
Wind_Direction
341 341 342 345 346 346 347 348 350 351 352 353 355 356 357 358 357 357 359 1 2 3 4 4 1 358 358 1 6 10 5 357 355 354 354 2 12 10 9 13 10 6 13 15 353 334 53 42 30 11 358 353 12 52 7 332 315 221 210 241 251 249 245 246 239 220 210 209 215 213 207 213 221 226 226 218 218 231 235 234 236 238 236 237 244 253 261 265
339 339 340 342 343 344 344 346 348 350 352 353 354 355 357 357 357 357 358 0 1 3 4 4 3 360 358 0 5 9 6 357 353 357 359 355 358 2 360 3 2 358 8 14 323 295 30 56 42 18 354 348 1 38 31 20 329 320 257 242 246 247 246 247 241 224 212 210 216 218 215 221 226 227 228 222 219 231 239 238 240 242 242 243 248 256 264 267
339 339 339 340 340 341 342 345 347 348 351 352 353 354 356 357 357 357 357 359 0 2 3 3 3 1 360 0 3 7 7 0 354 355 2 3 359 0 352 348 350 344 346 333 293 302 21 52 49 27 358 348 341 327 348 354 328 328 315 250 245 245 242 242 241 230 220 215 219 224 226 230 233 232 233 229 224 231 238 242 245 247 249 252 257 263 269 273
340 339 338 338 338 339 341 343 346 347 349 351 352 353 354 355 357 357 357 358 359 1 2 2 2 1 1 1 1 3 6 4 359 353 357 9 16 18 0 350 360 352 329 297 293 334 13 16 28 29 0 339 340 344 345 328 317 311 286 266 256 249 237 233 234 232 226 223 223 228 234 238 240 241 240 236 233 236 241 245 249 252 256 261 267 273 278 282
341 339 337 337 337 338 339 341 344 346 348 350 351 351 353 354 356 357 356 357 358 360 1 1 1 0 0 1 0 0 3 6 2 354 351 2 16 21 5 2 27 27 12 327 324 13 17 4 16 25 3 350 352 349 336 317 309 297 278 261 253 247 238 229 227 228 228 226 226 230 236 241 247 251 252 248 242 242 247 251 256 260 266 272 279 285 288 288
346 341 337 336 335 336 337 339 342 344 346 349 349 350 351 352 354 356 356 356 357 359 360 0 0 360 360 360 359 358 1 5 4 356 348 350 358 2 356 7 41 36 18 359 22 49 35 10 0 346 341 351 345 333 318 310 305 295 283 270 258 248 241 234 228 228 229 229 231 236 241 244 249 254 258 257 253 252 256 261 266 272 276 281 286 290 290 286
354 348 341 336 334 334 335 337 340 342 345 347 347 348 349 350 352 354 355 355 355 358 359 359 359 359 358 358 358 357 358 3 4 357 345 337 327 322 337 3 35 18 342 348 27 56 43 7 348 325 325 337 327 315 307 303 297 284 275 269 263 254 247 242 237 235 235 235 237 240 243 246 248 251 255 257 259 261 265 269 273 278 282 285 284 280 279 276
359 355 348 340 335 333 334 336 338 340 343 345 346 346 348 349 350 352 354 354 354 356 357 358 358 358 357 357 356 355 356 359 2 357 343 320 290 282 304 347 347 305 300 311 330 10 3 347 339 322 319 323 316 308 302 298 293 278 268 267 265 259 253 249 246 244 244 243 243 244 246 249 251 253 256 259 262 266 270 274 278 283 287 286 278 270 267 264
1 359 354 346 339 335 334 335 337 339 341 344 344 344 346 348 348 349 352 353 353 355 356 356 357 357 356 356 354 353 353 355 356 353 339 304 280 281 295 320 304 292 293 296 303 314 313 311 314 315 314 316 313 304 299 306 310 278 269 273 275 264 255 252 252 251 250 249 249 250 252 255 258 259 262 265 268 271 274 276 280 285 287 279 260 248 229 193
1 0 358 352 344 337 334 335 336 337 339 342 343 343 344 346 346 347 349 352 352 353 355 355 356 356 355 354 353 351 350 350 349 343 323 298 297 310 308 288 289 290 291 294 303 307 305 304 307 312 312 314 313 299 312 1 10 300 283 291 310 296 264 260 265 259 255 251 250 250 253 255 257 259 264 268 270 270 270 271 278 285 294 148 128 116 107 91
0 360 359 355 349 342 336 334 334 334 337 340 342 342 342 344 344 345 346 349 351 352 353 354 355 355 354 353 351 349 347 346 340 327 308 303 319 330 309 269 263 273 280 290 300 301 302 303 308 312 313 314 294 145 121 107 76 41 21 38 30 1 321 298 285 271 251 243 247 246 246 247 248 253 265 265 257 250 242 241 273 311 69 80 84 82 77 68
358 358 358 357 353 347 339 334 332 332 335 339 342 340 341 343 343 342 344 347 349 350 351 352 354 354 353 352 351 348 345 341 331 314 306 313 326 326 307 282 255 261 266 274 286 291 296 302 309 313 304 277 166 135 127 119 58 27 11 21 40 59 56 6 309 139 111 116 178 188 203 219 221 280 74 117 158 170 162 136 104 87 80 73 70 66 62 60
357 357 357 357 355 351 344 335 330 330 333 339 341 339 339 341 340 340 342 344 347 348 349 351 352 353 352 351 350 347 342 336 321 308 311 320 325 319 312 296 261 259 261 262 272 281 290 301 309 302 252 228 158 107 96 80 32 357 347 347 15 96 99 89 107 120 116 123 148 125 118 157 140 81 90 112 129 141 138 120 102 86 75 68 62 59 58 56
355 355 356 356 356 354 349 339 330 328 333 338 339 337 338 339 338 338 340 341 344 346 347 349 351 351 351 351 349 346 341 331 315 309 316 320 318 315 311 297 267 259 263 263 268 276 286 297 298 212 210 202 155 34 23 27 3 347 354 5 45 118 114 99 103 108 109 112 89 73 88 125 131 108 108 111 118 129 137 130 106 83 73 65 59 59 57 52
354 354 354 355 355 354 351 345 335 329 332 337 336 336 337 337 337 337 338 339 341 344 345 347 350 350 350 350 350 346 339 328 315 312 315 311 309 305 295 284 263 253 264 271 273 276 274 213 174 198 206 200 257 348 353 0 5 14 48 72 92 114 116 105 100 99 108 116 92 78 90 102 112 125 112 109 117 117 123 128 106 86 76 69 64 63 61 57
353 353 353 354 354 355 353 349 342 333 332 335 333 334 336 336 337 337 337 337 339 341 343 346 348 349 350 350 349 346 338 326 317 314 309 299 300 293 279 275 260 238 246 259 258 247 191 171 189 203 204 193 12 358 348 7 34 55 77 87 98 110 114 110 104 103 116 127 112 100 93 87 99 122 119 114 123 117 114 114 98 87 76 71 67 65 68 64
351 352 352 353 353 354 354 352 349 340 333 333 331 333 335 335 337 338 336 336 337 339 341 345 347 348 349 350 349 346 338 327 320 315 301 290 287 276 270 273 263 216 194 222 215 183 177 190 204 200 161 79 38 11 2 59 73 80 86 90 97 105 110 112 109 114 126 134 126 114 110 87 92 113 117 110 110 111 112 103 91 85 78 70 62 63 78 74
349 350 351 352 352 353 355 355 352 345 335 330 331 333 334 336 338 338 336 335 336 338 340 343 346 347 349 349 349 346 339 329 323 316 298 284 270 262 262 263 258 198 175 196 186 173 189 204 205 180 142 89 53 27 50 97 94 93 94 92 96 102 108 113 117 124 133 140 139 128 128 120 88 102 106 102 100 100 99 89 85 82 76 68 55 57 80 80
348 349 350 352 352 352 355 357 354 347 337 329 330 333 333 336 338 337 336 335 336 337 338 342 345 346 348 349 349 346 339 330 326 316 295 279 258 251 253 250 245 189 173 181 175 178 198 205 190 181 172 99 54 23 73 108 107 102 99 95 98 101 105 114 122 128 135 136 141 145 143 143 131 114 107 104 101 95 90 83 79 74 71 69 58 64 83 85
345 347 349 351 352 352 354 358 356 348 339 330 330 332 331 334 336 336 335 334 335 336 337 341 343 345 347 349 349 347 339 330 326 314 289 274 254 244 244 243 233 189 176 177 177 187 202 198 186 192 194 136 51 27 87 109 108 106 99 96 101 103 106 112 118 123 131 129 132 150 158 162 171 163 149 132 105 89 86 81 74 72 75 78 77 85 92 92
343 345 347 349 351 351 353 357 357 349 342 334 330 330 330 332 334 334 335 334 335 335 336 340 342 344 346 349 350 347 339 329 325 312 286 269 250 243 239 235 225 194 181 180 185 196 201 193 190 195 191 157 42 40 111 113 100 100 98 98 102 104 108 112 115 120 124 121 122 138 161 173 188 193 181 166 115 83 85 83 78 79 86 93 94 95 94 90
342 343 345 348 349 350 351 356 357 351 346 340 333 330 329 330 331 333 334 333 333 334 336 338 340 343 345 349 351 348 339 330 325 313 287 264 243 242 235 225 218 197 185 185 191 201 200 193 192 191 186 202 329 343 149 131 104 104 110 114 114 110 114 117 118 121 119 115 117 125 146 166 187 201 187 177 148 93 90 91 91 90 94 99 99 95 90 84
340 341 343 346 347 348 350 354 356 354 350 346 337 330 329 329 329 332 333 332 332 333 334 337 339 342 345 348 351 348 341 332 327 316 288 264 239 234 227 219 214 201 191 189 195 204 204 197 190 183 195 249 278 237 164 145 125 123 125 125 127 123 122 122 121 125 129 122 117 127 140 148 171 197 185 173 141 105 99 99 99 97 98 99 96 90 84 80
338 339 341 343 345 346 348 351 354 354 353 352 343 332 328 328 327 330 332 332 331 332 333 335 337 341 344 348 350 349 344 336 331 318 290 272 239 226 223 216 212 205 200 196 198 204 208 209 198 182 204 237 238 185 161 154 150 143 130 124 126 123 122 120 118 126 134 122 113 133 141 134 153 181 171 154 127 111 108 106 103 101 98 94 90 85 83 83
336 337 338 341 343 344 345 347 351 352 354 355 349 336 328 327 325 327 331 330 329 331 332 333 336 340 344 348 350 349 346 340 335 319 297 281 240 223 222 216 211 207 207 205 202 204 208 216 214 197 214 227 194 162 161 162 163 156 142 135 127 120 119 119 117 119 121 109 101 118 128 122 137 157 152 135 122 116 112 108 105 101 94 89 88 88 88 88
334 334 335 338 340 341 342 345 348 349 351 355 353 344 333 326 324 325 327 328 327 329 330 330 333 339 344 348 349 349 348 344 337 320 304 291 246 226 224 217 211 206 209 211 206 205 206 212 219 218 221 211 171 165 170 171 172 167 154 143 131 126 128 125 114 109 109 105 102 104 105 111 127 136 134 127 122 118 112 108 105 97 89 89 91 92 92 90
331 331 332 335 337 339 340 342 345 347 349 351 353 350 340 328 324 324 323 324 324 326 327 327 332 339 344 347 349 350 349 345 336 320 310 301 257 230 226 221 213 206 208 211 207 205 206 208 217 223 218 190 168 175 184 184 186 181 161 145 139 132 117 104 100 100 104 105 104 104 102 105 117 124 125 123 119 115 112 109 104 94 90 93 94 93 92 91
328 328 329 332 335 336 338 340 343 346 347 349 351 351 346 335 325 323 322 321 321 323 325 325 331 339 343 346 348 349 349 345 334 321 313 306 272 235 225 221 216 208 206 209 205 201 203 203 210 218 210 183 174 182 193 195 199 194 170 156 147 123 100 92 97 101 105 105 104 104 102 106 116 120 120 118 114 112 111 108 103 99 98 97 95 92 92 93
326 326 327 330 332 334 336 337 341 343 345 347 349 350 349 342 331 324 321 318 316 320 323 323 330 338 342 345 347 349 349 345 334 323 315 303 282 245 224 216 216 211 206 209 206 198 197 194 199 211 204 184 179 183 196 204 205 199 185 172 152 124 102 96 105 109 110 109 110 107 105 110 117 118 117 114 112 110 110 108 106 106 103 100 96 93 94 95
323 325 326 327 329 331 333 335 339 341 342 345 347 348 348 346 338 327 320 315 313 316 319 319 328 337 341 344 345 347 349 344 335 326 317 303 287 258 231 215 214 214 207 208 207 202 197 190 191 199 194 186 181 184 204 212 208 201 193 178 155 130 112 108 115 120 117 115 116 113 111 114 117 117 115 113 112 113 112 111 111 111 108 104 100 97 95 93
321 323 324 325 327 329 331 333 337 339 340 342 345 346 346 346 342 332 320 313 310 311 314 316 325 335 339 341 343 346 348 345 337 327 317 308 292 266 239 217 215 218 212 207 206 204 199 189 187 188 188 188 184 189 208 213 206 203 191 169 156 134 115 115 122 125 122 120 120 118 118 122 122 120 118 116 116 117 117 117 117 115 111 106 102 99 93 90
319 321 322 323 325 327 328 331 334 337 338 340 343 344 344 345 344 336 322 313 309 306 308 313 321 331 336 339 341 344 347 345 338 326 316 310 292 267 241 220 216 219 217 210 205 206 201 190 185 184 186 190 188 197 211 211 209 207 191 172 158 136 119 119 125 128 129 128 127 126 126 129 131 130 127 125 124 123 123 122 122 118 113 108 104 97 90 88
317 319 320 321 323 324 326 329 332 335 336 338 341 342 343 344 343 338 326 315 307 301 303 309 316 327 333 336 339 342 345 345 340 330 319 310 285 251 224 214 216 219 222 217 208 208 207 196 187 185 186 190 194 207 216 210 193 190 193 182 156 135 129 128 130 132 135 136 134 131 129 132 136 138 137 133 132 130 130 130 126 120 115 111 105 97 86 82
316 317 317 319 321 323 324 326 330 333 333 336 339 340 342 342 341 338 329 316 306 298 298 303 310 322 330 333 336 340 344 345 341 333 322 308 284 248 218 204 210 220 228 228 219 214 212 204 194 190 192 194 199 212 223 214 177 158 194 187 155 144 147 142 138 136 137 140 136 131 131 133 136 140 141 139 136 135 134 133 129 123 119 114 107 97 79 69
313 314 315 317 319 321 323 325 328 331 331 334 336 338 341 341 338 337 329 317 307 297 293 297 303 317 325 329 334 337 342 343 340 335 325 311 289 252 225 207 205 217 231 236 229 220 216 212 203 197 200 203 207 214 224 224 198 175 198 196 173 166 166 156 147 139 136 138 135 131 132 133 136 140 143 142 139 138 138 136 133 129 125 116 104 90 68 53
311 312 312 315 317 319 322 323 326 328 329 331 333 336 339 339 336 335 328 318 308 296 291 292 298 310 320 325 331 335 339 341 339 335 326 312 288 249 228 216 207 210 226 238 235 225 220 219 213 205 203 207 216 219 220 223 209 190 197 214 209 191 181 175 161 145 138 138 135 135 135 134 138 142 145 145 143 142 142 140 139 139 131 114 95 80 56 35
308 309 310 312 315 317 320 322 324 326 328 329 331 335 338 337 335 332 325 317 308 296 288 287 292 304 315 321 326 331 335 338 338 334 326 314 290 249 225 221 213 208 217 229 233 228 223 222 221 215 209 210 220 227 225 220 208 195 197 214 222 209 196 193 180 161 153 148 143 143 143 141 143 147 150 150 150 150 149 147 149 145 128 101 78 61 36 16
306 307 308 310 313 315 318 320 323 325 326 326 328 334 337 336 334 330 323 315 306 297 285 281 286 296 308 315 319 325 330 333 335 333 325 314 294 261 233 222 216 212 215 221 224 225 222 221 222 222 218 215 219 228 232 226 208 197 200 208 220 219 208 202 198 186 179 174 166 163 159 153 150 153 156 157 158 158 158 157 154 141 116 79 44 10 1 353
304 305 306 308 311 313 316 319 321 323 324 324 327 332 335 335 332 327 321 312 303 295 282 276 278 287 300 307 311 318 324 328 332 331 325 312 294 276 249 229 216 211 214 218 220 222 220 219 218 220 221 218 217 221 229 231 217 203 204 207 216 222 214 207 207 206 205 201 191 182 174 166 161 162 165 167 170 172 173 171 162 145 122 70 354 325 321 327
302 303 304 306 308 311 314 316 319 321 323 323 325 330 333 333 329 324 318 308 298 291 279 271 271 277 290 297 302 310 316 322 328 329 325 309 288 276 259 240 223 212 211 213 217 220 221 220 219 218 219 218 217 219 223 229 226 214 211 212 215 222 219 212 210 211 216 216 206 199 190 177 172 174 176 179 183 185 188 189 186 180 175 230 313 314 310 313
300 302 303 304 306 309 312 315 317 319 321 322 324 327 331 331 326 320 314 303 292 287 277 266 265 270 281 289 294 302 308 316 324 325 323 309 285 271 258 246 232 221 216 213 214 217 221 223 222 221 221 218 217 220 223 226 229 227 223 218 215 219 220 218 215 213 217 219 213 212 210 193 181 183 187 190 194 196 198 202 206 210 220 255 291 307 309 313
299 301 302 303 305 308 311 313 315 317 319 320 322 325 328 328 323 316 309 297 287 283 274 262 260 264 272 280 286 293 301 310 318 321 321 311 293 274 258 248 238 230 225 221 217 216 220 224 223 222 223 219 216 220 222 222 226 230 229 223 217 216 218 221 223 221 221 224 220 216 217 208 193 193 199 201 202 205 209 214 220 230 248 270 289 303 308 313
299 300 302 302 304 307 309 312 314 316 317 319 321 323 324 324 320 313 305 293 282 278 271 259 254 256 262 272 280 286 293 303 312 318 318 312 300 278 254 245 241 235 229 226 222 219 220 224 225 223 223 221 218 220 221 218 219 226 230 229 223 218 217 219 224 225 225 228 228 221 217 214 206 203 208 211 211 214 221 227 233 245 262 276 287 297 303 307
299 300 302 302 304 306 308 311 313 314 315 317 319 319 320 321 317 309 300 289 277 272 267 256 249 250 254 264 273 278 287 298 308 314 315 313 303 275 248 242 243 240 233 229 227 224 223 225 227 226 223 222 221 221 221 218 217 221 227 230 227 222 219 219 223 225 225 228 231 229 223 220 216 214 217 218 218 221 231 238 246 258 270 279 286 292 298 301
299 301 302 302 304 306 308 310 311 313 314 315 316 316 317 317 313 305 296 282 268 264 262 253 246 246 249 256 265 273 282 292 302 308 312 312 300 273 252 247 246 242 234 230 231 229 227 227 229 229 226 223 222 222 222 220 220 222 225 229 230 226 223 223 224 225 227 229 233 234 233 231 229 227 225 225 225 229 238 246 255 264 274 280 285 290 295 296
298 300 302 303 304 305 307 309 310 311 313 314 313 313 314 314 309 301 290 275 260 256 256 250 245 244 244 250 260 269 276 284 294 303 308 307 294 274 261 256 253 247 236 229 230 231 228 228 230 231 230 227 225 223 223 222 223 223 225 228 230 229 227 226 226 227 228 230 233 236 236 237 237 235 233 231 233 236 240 245 254 266 276 282 286 293 297 296
298 300 301 303 304 305 306 307 309 310 312 312 311 311 311 310 305 295 285 271 255 251 252 248 243 241 239 243 255 264 269 275 286 296 301 299 289 276 266 263 262 255 243 232 229 228 226 227 228 230 231 230 229 226 224 224 225 225 227 229 230 230 230 229 229 230 231 231 233 235 236 237 238 238 237 236 239 242 243 247 255 270 281 285 289 297 299 296
298 299 301 302 303 304 305 306 308 309 310 310 310 309 309 307 301 289 279 267 251 246 248 244 238 237 235 236 249 259 263 268 277 287 294 295 289 279 270 265 263 258 250 240 232 229 226 225 226 227 228 228 229 228 225 225 226 227 229 230 230 231 231 231 231 232 233 233 234 236 237 238 239 239 239 240 242 245 248 251 258 271 281 284 291 299 300 298
298 299 300 302 303 303 304 305 307 308 309 309 308 307 307 305 297 284 274 263 247 241 243 240 234 234 232 230 242 254 258 262 269 279 289 292 289 281 272 263 258 255 251 244 236 231 228 228 228 229 230 229 228 227 226 224 224 225 227 228 228 229 231 232 233 233 234 236 237 238 240 242 243 243 242 242 244 247 250 254 261 270 277 282 289 297 300 300
297 298 300 301 302 302 303 304 306 307 307 307 307 307 307 302 292 280 271 258 243 237 238 236 233 233 230 227 236 249 254 257 262 273 283 288 288 283 275 266 261 258 254 249 244 238 234 233 234 234 234 233 231 229 228 225 223 224 225 224 225 227 230 232 234 235 236 237 239 240 242 243 245 246 246 245 247 250 253 257 263 270 276 280 285 290 295 297
296 297 299 299 301 302 302 303 305 305 306 306 306 306 305 298 286 276 266 250 236 230 231 232 230 229 227 224 231 244 250 253 256 265 276 283 286 284 278 270 266 264 260 256 253 249 244 239 238 237 234 231 230 230 230 227 224 222 221 221 222 226 229 231 233 235 236 238 240 241 243 244 246 248 250 250 251 254 257 260 265 270 275 278 281 285 289 293
295 296 297 298 300 301 301 302 303 303 304 305 305 305 301 293 282 272 261 243 230 225 227 228 227 225 223 220 226 239 246 249 252 257 267 275 279 278 275 269 264 260 257 254 253 253 251 244 240 239 236 232 230 229 229 227 224 221 219 220 223 226 228 230 233 234 235 237 240 242 243 245 247 249 251 253 255 257 260 263 268 271 274 277 279 282 286 290
Height
10784 10781 10779 10776 10773 10770 10767 10764 10761 10758 10754 10751 10747 10743 10739 10736 10732 10728 10724 10719 10715 10710 10706 10702 10699 10696 10694 10692 10691 10690 10689 10689 10688 10688 10689 10689 10689 10688 10688 10688 10688 10688 10687 10687 10686 10685 10686 10687 10688 10689 10690 10690 10690 10690 10690 10691 10691 10691 10691 10692 10692 10692 10692 10693 10694 10696 10697 10698 10699 10699 10701 10702 10703 10704 10706 10708 10710 10711 10712 10713 10714 10714 10716 10717 10718 10719 10720 10720
10783 10780 10777 10775 10772 10769 10766 10763 10760 10757 10754 10750 10747 10743 10739 10736 10732 10728 10724 10720 10716 10711 10707 10703 10700 10697 10694 10693 10692 10691 10690 10689 10689 10689 10689 10689 10689 10689 10689 10689 10688 10688 10688 10687 10686 10686 10687 10688 10689 10690 10690 10691 10690 10691 10691 10691 10691 10692 10692 10693 10693 10693 10693 10693 10694 10696 10697 10698 10699 10699 10701 10701 10703 10704 10705 10707 10709 10710 10711 10712 10713 10714 10715 10717 10718 10719 10719 10718
10782 10779 10776 10774 10771 10768 10765 10762 10759 10756 10753 10750 10747 10743 10739 10736 10732 10728 10724 10720 10716 10712 10708 10704 10701 10698 10695 10694 10693 10691 10690 10689 10689 10689 10689 10689 10689 10689 10689 10688 10688 10688 10687 10687 10686 10687 10688 10689 10690 10690 10691 10691 10691 10691 10692 10692 10692 10692 10693 10693 10693 10693 10694 10694 10695 10696 10697 10698 10699 10700 10701 10702 10703 10704 10705 10706 10708 10709 10710 10711 10713 10714 10715 10717 10717 10718 10718 10717
10781 10778 10775 10773 10770 10767 10764 10761 10758 10755 10752 10749 10746 10743 10740 10736 10732 10728 10725 10720 10717 10713 10709 10705 10701 10698 10696 10695 10693 10692 10691 10690 10690 10690 10690 10690 10690 10690 10689 10688 10687 10687 10687 10687 10687 10688 10690 10690 10690 10691 10691 10691 10691 10692 10692 10692 10692 10692 10693 10693 10693 10694 10694 10695 10695 10696 10697 10698 10699 10700 10701 10702 10703 10704 10705 10706 10707 10708 10709 10711 10712 10714 10715 10716 10716 10717 10716 10715
10779 10777 10774 10772 10769 10766 10763 10760 10758 10755 10752 10749 10746 10743 10739 10736 10732 10729 10725 10721 10717 10713 10709 10706 10702 10699 10697 10695 10694 10693 10691 10690 10690 10690 10690 10690 10690 10690 10689 10688 10688 10688 10688 10688 10689 10690 10691 10691 10691 10692 10692 10692 10692 10692 10693 10693 10693 10693 10693 10693 10693 10694 10694 10695 10696 10697 10698 10699 10700 10701 10701 10702 10703 10704 10704 10705 10706 10707 10708 10710 10711 10713 10714 10714 10714 10715 10714 10713
10778 10775 10773 10770 10768 10765 10762 10759 10757 10754 10751 10748 10745 10742 10739 10736 10732 10729 10725 10721 10717 10714 10710 10706 10703 10700 10697 10696 10694 10693 10692 10691 10690 10690 10690 10690 10690 10689 10689 10689 10689 10689 10688 10689 10690 10690 10691 10692 10692 10692 10691 10691 10692 10693 10693 10693 10693 10692 10692 10692 10693 10693 10694 10695 10696 10697 10698 10698 10699 10700 10701 10702 10702 10703 10704 10705 10706 10707 10708 10709 10710 10711 10711 10712 10712 10712 10711 10710
10777 10774 10771 10769 10766 10763 10761 10758 10756 10753 10750 10747 10745 10742 10739 10736 10732 10729 10726 10722 10718 10714 10711 10707 10704 10700 10698 10696 10695 10693 10692 10692 10691 10690 10690 10690 10689 10689 10689 10690 10690 10689 10688 10689 10690 10691 10691 10692 10692 10691 10691 10691 10692 10692 10693 10692 10692 10692 10692 10692 10692 10692 10693 10694 10696 10696 10697 10698 10699 10699 10700 10701 10702 10702 10703 10704 10705 10706 10707 10707 10708 10708 10709 10709 10709 10709 10709 10709
10776 10773 10770 10767 10764 10762 10759 10757 10754 10752 10749 10746 10744 10741 10739 10735 10732 10729 10726 10722 10718 10715 10711 10708 10704 10701 10698 10697 10695 10694 10693 10692 10691 10690 10689 10689 10688 10688 10689 10690 10690 10689 10689 10690 10690 10691 10691 10691 10691 10691 10691 10691 10691 10692 10692 10692 10692 10691 10691 10691 10691 10691 10692 10693 10694 10695 10696 10697 10697 10698 10699 10700 10700 10701 10702 10702 10703 10704 10705 10706 10706 10706 10706 10707 10707 10707 10708 10709
10775 10772 10769 10766 10763 10760 10758 10756 10753 10751 10748 10745 10743 10740 10738 10735 10732 10729 10726 10722 10719 10715 10712 10709 10705 10702 10699 10697 10695 10694 10693 10692 10691 10690 10689 10688 10686 10687 10690 10691 10691 10690 10690 10690 10691 10691 10691 10691 10691 10691 10691 10691 10691 10691 10691 10691 10691 10691 10691 10690 10690 10690 10691 10692 10693 10694 10694 10695 10696 10697 10698 10699 10699 10700 10700 10701 10702 10703 10703 10704 10704 10705 10706 10706 10706 10707 10708 10708
10774 10771 10768 10765 10761 10759 10756 10754 10752 10749 10747 10744 10742 10739 10737 10734 10731 10728 10726 10722 10719 10715 10712 10709 10706 10702 10700 10697 10696 10694 10693 10692 10691 10690 10688 10686 10685 10688 10691 10691 10691 10691 10690 10690 10690 10690 10690 10691 10691 10691 10691 10691 10691 10691 10690 10691 10691 10691 10690 10690 10690 10690 10691 10692 10693 10693 10694 10694 10695 10696 10697 10697 10698 10699 10700 10701 10701 10701 10702 10703 10704 10705 10706 10707 10707 10707 10707 10708
10773 10770 10767 10763 10760 10757 10754 10752 10750 10748 10746 10743 10741 10739 10736 10734 10731 10728 10725 10722 10719 10716 10712 10709 10706 10703 10700 10698 10696 10694 10693 10692 10691 10689 10687 10685 10686 10689 10690 10691 10691 10691 10691 10691 10690 10689 10689 10690 10691 10691 10691 10691 10692 10691 10691 10691 10691 10690 10690 10690 10690 10691 10691 10692 10693 10694 10694 10695 10695 10696 10696 10697 10697 10699 10700 10701 10701 10701 10702 10703 10705 10706 10707 10707 10707 10707 10707 10707
10772 10769 10765 10762 10759 10756 10753 10750 10748 10746 10744 10742 10740 10738 10736 10733 10730 10727 10724 10722 10718 10715 10712 10709 10706 10703 10700 10698 10696 10694 10693 10692 10690 10688 10686 10686 10687 10688 10689 10690 10691 10690 10691 10691 10691 10690 10689 10690 10691 10691 10691 10692 10692 10692 10692 10691 10691 10690 10690 10690 10691 10691 10692 10693 10694 10694 10695 10695 10696 10696 10697 10697 10698 10700 10701 10701 10701 10702 10703 10704 10706 10707 10707 10707 10707 10707 10707 10707
10771 10768 10764 10761 10758 10754 10751 10749 10746 10744 10743 10741 10739 10737 10735 10732 10729 10726 10724 10721 10718 10715 10712 10709 10706 10703 10701 10698 10695 10694 10692 10691 10689 10687 10686 10687 10687 10688 10688 10689 10690 10690 10690 10691 10691 10690 10690 10691 10691 10691 10692 10692 10692 10692 10693 10692 10692 10691 10690 10691 10691 10692 10693 10693 10694 10695 10696 10696 10696 10697 10698 10698 10699 10700 10701 10702 10703 10703 10704 10705 10706 10707 10707 10707 10707 10707 10707 10708
10770 10767 10763 10760 10757 10753 10750 10747 10744 10743 10741 10740 10738 10735 10734 10731 10728 10726 10724 10721 10718 10715 10712 10709 10706 10704 10701 10698 10695 10693 10691 10690 10688 10686 10687 10687 10687 10687 10688 10688 10689 10689 10689 10689 10690 10691 10691 10691 10691 10691 10692 10692 10693 10693 10693 10693 10692 10692 10691 10691 10692 10693 10693 10694 10695 10696 10696 10696 10697 10698 10699 10699 10700 10701 10702 10703 10704 10705 10706 10706 10707 10708 10707 10707 10707 10708 10708 10708
10769 10766 10762 10759 10756 10752 10749 10746 10743 10741 10740 10738 10736 10734 10732 10730 10728 10725 10723 10720 10717 10714 10711 10709 10706 10703 10701 10698 10695 10693 10691 10689 10687 10686 10687 10686 10686 10687 10687 10688 10688 10688 10688 10688 10689 10690 10691 10691 10691 10692 10692 10693 10693 10694 10693 10693 10692 10692 10692 10692 10693 10693 10694 10695 10696 10696 10697 10697 10698 10699 10700 10700 10701 10702 10703 10704 10705 10706 10707 10707 10708 10708 10708 10708 10708 10708 10709 10709
10768 10765 10761 10758 10754 10751 10748 10744 10741 10739 10738 10737 10735 10733 10731 10729 10727 10725 10722 10719 10717 10714 10711 10708 10706 10703 10700 10697 10694 10692 10690 10688 10686 10686 10686 10686 10686 10686 10687 10687 10687 10688 10688 10689 10689 10690 10691 10691 10692 10693 10693 10694 10694 10694 10694 10693 10693 10693 10693 10694 10694 10694 10695 10696 10696 10697 10698 10698 10699 10700 10701 10701 10703 10703 10704 10705 10706 10707 10708 10708 10708 10708 10708 10708 10709 10709 10710 10710
10766 10764 10760 10757 10753 10750 10747 10743 10740 10738 10736 10735 10733 10731 10730 10728 10726 10724 10721 10719 10716 10713 10710 10707 10705 10702 10699 10696 10693 10691 10689 10687 10685 10685 10685 10685 10685 10686 10686 10687 10687 10688 10688 10689 10689 10690 10691 10691 10692 10693 10694 10694 10695 10694 10694 10693 10694 10694 10694 10695 10695 10695 10696 10696 10697 10698 10698 10699 10700 10701 10702 10703 10704 10704 10705 10706 10707 10708 10708 10709 10708 10709 10709 10709 10709 10710 10710 10710
10765 10762 10759 10756 10752 10749 10746 10742 10739 10737 10735 10733 10731 10730 10728 10726 10725 10723 10720 10718 10715 10712 10709 10707 10704 10701 10698 10696 10693 10690 10688 10686 10685 10685 10684 10684 10684 10685 10685 10686 10687 10688 10689 10689 10689 10690 10691 10691 10693 10693 10694 10694 10695 10695 10694 10694 10694 10695 10695 10696 10696 10696 10696 10697 10698 10698 10699 10700 10701 10702 10703 10704 10705 10706 10706 10706 10707 10708 10709 10709 10709 10709 10709 10710 10710 10710 10711 10711
10763 10761 10758 10755 10751 10748 10745 10741 10738 10735 10733 10731 10730 10728 10727 10725 10724 10722 10720 10717 10715 10712 10709 10706 10703 10700 10698 10695 10692 10689 10687 10685 10684 10684 10683 10682 10683 10684 10684 10686 10687 10688 10689 10689 10690 10690 10691 10692 10693 10693 10694 10695 10695 10695 10695 10695 10695 10695 10696 10696 10697 10697 10697 10698 10699 10699 10700 10701 10702 10703 10703 10705 10706 10706 10707 10707 10708 10709 10709 10709 10709 10709 10710 10710 10711 10711 10711 10712
10762 10759 10757 10754 10750 10747 10744 10740 10737 10734 10731 10729 10728 10727 10725 10724 10722 10721 10719 10716 10714 10711 10709 10706 10703 10700 10697 10695 10692 10689 10686 10684 10684 10683 10681 10681 10682 10683 10683 10685 10687 10688 10689 10689 10690 10690 10691 10692 10693 10693 10694 10695 10696 10696 10696 10696 10696 10697 10697 10697 10698 10698 10698 10699 10700 10700 10701 10701 10702 10703 10704 10705 10706 10707 10708 10708 10709 10709 10709 10709 10709 10710 10710 10711 10712 10712 10712 10712
10760 10758 10755 10752 10749 10746 10743 10740 10737 10733 10730 10728 10727 10725 10724 10723 10721 10720 10717 10715 10713 10711 10708 10706 10702 10699 10697 10695 10692 10688 10685 10683 10683 10682 10681 10680 10681 10682 10683 10685 10686 10688 10689 10690 10690 10691 10692 10693 10693 10694 10695 10696 10697 10697 10697 10698 10698 10698 10698 10698 10699 10699 10699 10700 10701 10701 10702 10702 10702 10704 10705 10706 10707 10707 10708 10709 10709 10710 10710 10710 10710 10711 10711 10712 10712 10713 10713 10713
10759 10756 10754 10751 10748 10745 10742 10739 10736 10733 10729 10727 10726 10724 10722 10721 10720 10718 10716 10714 10712 10710 10708 10705 10702 10699 10697 10694 10691 10688 10685 10683 10682 10681 10680 10680 10680 10682 10683 10684 10686 10687 10689 10690 10691 10691 10692 10693 10693 10695 10696 10697 10698 10698 10698 10699 10699 10700 10700 10700 10700 10700 10700 10700 10701 10702 10703 10704 10703 10704 10706 10706 10707 10708 10708 10709 10710 10710 10710 10710 10711 10712 10712 10713 10713 10714 10714 10714
10757 10755 10752 10750 10747 10744 10741 10739 10736 10732 10728 10725 10724 10722 10721 10720 10718 10717 10715 10713 10711 10709 10707 10705 10701 10699 10696 10693 10690 10688 10685 10682 10681 10681 10680 10680 10680 10681 10683 10684 10685 10687 10689 10690 10691 10691 10693 10694 10695 10696 10697 10698 10698 10699 10699 10700 10700 10700 10701 10701 10701 10701 10702 10701 10702 10703 10704 10705 10705 10705 10706 10707 10708 10708 10709 10709 10710 10710 10710 10711 10712 10712 10713 10713 10714 10714 10714 10715
10755 10753 10751 10748 10746 10743 10740 10738 10735 10732 10728 10725 10722 10721 10719 10718 10717 10715 10714 10712 10710 10708 10706 10704 10701 10698 10696 10693 10690 10687 10685 10682 10681 10681 10680 10680 10680 10681 10682 10683 10685 10686 10688 10689 10690 10692 10693 10695 10696 10697 10697 10698 10698 10699 10700 10700 10700 10701 10701 10702 10702 10702 10702 10702 10702 10703 10704 10705 10705 10706 10707 10707 10708 10709 10709 10710 10710 10710 10711 10712 10713 10713 10714 10714 10715 10715 10715 10716
10753 10751 10749 10747 10744 10741 10739 10736 10734 10731 10728 10725 10722 10720 10718 10716 10715 10714 10712 10711 10709 10707 10705 10703 10701 10698 10695 10692 10689 10687 10684 10682 10680 10680 10680 10680 10680 10681 10682 10683 10685 10686 10688 10690 10691 10693 10694 10696 10697 10698 10698 10698 10698 10699 10701 10701 10701 10701 10702 10703 10703 10703 10703 10703 10703 10703 10704 10705 10706 10707 10707 10708 10708 10709 10710 10710 10710 10711 10712 10712 10713 10714 10715 10715 10715 10716 10716 10717
10751 10750 10747 10745 10743 10740 10737 10735 10732 10730 10727 10725 10721 10719 10717 10715 10713 10712 10711 10709 10708 10706 10705 10703 10701 10698 10695 10692 10689 10687 10684 10682 10680 10680 10680 10681 10681 10681 10682 10684 10685 10686 10688 10690 10692 10694 10695 10697 10698 10698 10698 10698 10699 10700 10701 10701 10701 10702 10702 10703 10703 10703 10703 10703 10703 10703 10704 10705 10706 10707 10707 10708 10709 10709 10710 10711 10711 10712 10712 10713 10714 10715 10716 10716 10717 10717 10717 10718
10749 10748 10746 10743 10741 10738 10736 10734 10731 10729 10726 10724 10721 10718 10716 10714 10712 10710 10709 10708 10706 10705 10703 10702 10700 10697 10695 10692 10689 10687 10684 10682 10680 10680 10680 10681 10681 10681 10682 10684 10685 10686 10688 10690 10693 10695 10696 10697 10699 10699 10699 10699 10699 10701 10701 10701 10702 10702 10703 10703 10703 10703 10703 10703 10703 10704 10704 10705 10706 10707 10707 10708 10709 10709 10710 10711 10712 10713 10713 10714 10715 10716 10717 10717 10718 10718 10718 10719
10747 10745 10744 10741 10739 10737 10734 10732 10730 10727 10725 10722 10720 10718 10715 10713 10711 10709 10708 10707 10705 10704 10702 10700 10699 10696 10694 10692 10689 10686 10684 10682 10680 10680 10680 10681 10681 10682 10683 10684 10685 10687 10688 10690 10693 10695 10696 10697 10699 10700 10699 10699 10700 10701 10702 10702 10702 10703 10704 10703 10703 10703 10703 10703 10704 10704 10705 10706 10707 10707 10708 10708 10709 10710 10710 10711 10713 10714 10715 10715 10716 10717 10717 10718 10719 10719 10720 10720
10744 10743 10741 10739 10737 10734 10732 10731 10728 10725 10723 10721 10719 10717 10714 10712 10710 10708 10706 10705 10704 10703 10701 10699 10698 10696 10694 10691 10689 10686 10684 10682 10680 10680 10680 10680 10681 10682 10683 10684 10685 10687 10689 10691 10693 10694 10696 10697 10699 10700 10700 10699 10700 10702 10702 10702 10703 10704 10704 10704 10704 10704 10704 10704 10704 10705 10706 10707 10708 10708 10708 10709 10710 10711 10711 10712 10713 10715 10716 10716 10716 10717 10718 10719 10720 10721 10721 10721
10742 10741 10739 10737 10734 10732 10730 10729 10727 10724 10721 10719 10717 10715 10713 10711 10709 10706 10705 10703 10702 10702 10700 10698 10697 10695 10693 10691 10689 10687 10684 10682 10681 10680 10680 10680 10681 10682 10683 10684 10685 10687 10689 10690 10692 10694 10696 10697 10698 10700 10700 10699 10700 10702 10702 10703 10705 10705 10705 10705 10705 10704 10704 10704 10705 10706 10706 10707 10708 10709 10709 10710 10711 10711 10712 10712 10714 10715 10716 10717 10717 10718 10719 10720 10720 10721 10722 10722
10738 10738 10737 10735 10732 10729 10728 10726 10725 10722 10719 10717 10715 10713 10712 10710 10707 10705 10703 10702 10701 10700 10699 10697 10696 10695 10693 10691 10689 10687 10685 10682 10681 10680 10680 10681 10681 10682 10683 10684 10685 10687 10689 10690 10692 10694 10695 10697 10698 10699 10700 10700 10701 10702 10702 10704 10705 10705 10705 10706 10706 10705 10705 10706 10706 10707 10707 10708 10708 10709 10710 10711 10712 10712 10712 10713 10714 10715 10717 10718 10718 10719 10719 10720 10721 10722 10722 10722
10735 10734 10734 10732 10729 10727 10725 10724 10723 10720 10716 10715 10713 10711 10710 10708 10706 10704 10702 10700 10700 10698 10697 10696 10696 10694 10693 10691 10690 10687 10685 10683 10681 10680 10680 10681 10681 10682 10683 10684 10685 10687 10689 10691 10692 10694 10695 10697 10698 10699 10699 10700 10701 10702 10702 10704 10706 10706 10706 10706 10706 10706 10706 10707 10708 10708 10709 10709 10709 10710 10710 10711 10712 10713 10713 10713 10714 10715 10717 10718 10719 10720 10720 10721 10721 10722 10723 10723
10732 10731 10730 10729 10727 10724 10722 10721 10721 10717 10714 10712 10711 10709 10708 10706 10705 10703 10700 10699 10698 10697 10696 10695 10695 10693 10692 10691 10690 10687 10685 10683 10681 10680 10680 10680 10681 10682 10683 10684 10686 10687 10688 10690 10693 10694 10696 10697 10698 10699 10699 10700 10701 10702 10703 10705 10707 10708 10708 10707 10707 10706 10706 10707 10708 10709 10710 10710 10710 10711 10711 10711 10712 10713 10714 10714 10715 10715 10717 10719 10720 10720 10721 10721 10722 10722 10723 10723
10728 10728 10726 10725 10724 10721 10719 10718 10718 10715 10711 10709 10709 10707 10706 10704 10703 10701 10699 10697 10696 10695 10694 10694 10693 10692 10692 10691 10689 10687 10685 10683 10681 10680 10679 10680 10681 10682 10683 10684 10686 10687 10688 10690 10692 10694 10696 10697 10698 10699 10699 10700 10701 10702 10704 10705 10707 10708 10708 10708 10707 10707 10708 10708 10709 10710 10710 10711 10711 10711 10711 10712 10713 10713 10714 10715 10715 10716 10717 10719 10720 10721 10721 10721 10722 10722 10723 10723
10725 10724 10723 10721 10720 10718 10716 10715 10715 10712 10708 10706 10706 10705 10704 10702 10701 10700 10697 10695 10694 10693 10693 10692 10692 10691 10690 10690 10689 10687 10685 10683 10681 10680 10680 10680 10681 10682 10683 10684 10686 10687 10687 10689 10691 10694 10695 10696 10698 10699 10699 10700 10701 10702 10704 10706 10707 10708 10709 10709 10709 10709 10709 10709 10709 10710 10711 10711 10711 10711 10712 10712 10713 10714 10715 10715 10716 10716 10717 10719 10720 10721 10721 10721 10722 10722 10722 10723
10721 10720 10719 10718 10716 10714 10713 10711 10711 10709 10705 10703 10703 10702 10701 10700 10699 10698 10696 10694 10692 10692 10691 10691 10690 10689 10689 10688 10688 10686 10685 10683 10681 10680 10680 10680 10680 10681 10682 10684 10685 10686 10687 10688 10690 10693 10694 10696 10698 10699 10700 10700 10701 10702 10703 10705 10707 10708 10709 10709 10709 10710 10710 10710 10710 10710 10711 10711 10712 10712 10712 10713 10713 10714 10715 10716 10716 10717 10718 10719 10720 10721 10721 10721 10721 10722 10722 10723
10717 10716 10715 10714 10712 10710 10708 10708 10707 10706 10702 10699 10699 10699 10698 10697 10696 10695 10694 10692 10690 10690 10690 10689 10689 10688 10687 10687 10686 10685 10684 10683 10681 10680 10679 10679 10680 10681 10681 10682 10684 10685 10686 10687 10689 10691 10694 10695 10697 10699 10700 10700 10701 10701 10702 10704 10706 10707 10708 10709 10710 10710 10710 10710 10710 10710 10711 10711 10712 10712 10712 10713 10714 10715 10715 10716 10716 10717 10718 10719 10720 10721 10721 10721 10721 10721 10722 10722
10712 10712 10711 10709 10709 10707 10704 10703 10703 10701 10699 10696 10695 10696 10696 10694 10693 10693 10691 10689 10688 10688 10688 10688 10687 10687 10686 10686 10685 10684 10684 10683 10681 10679 10678 10678 10679 10680 10680 10681 10682 10684 10685 10686 10687 10689 10692 10694 10696 10697 10699 10699 10700 10701 10701 10703 10704 10706 10707 10708 10709 10710 10710 10709 10710 10710 10711 10712 10712 10713 10713 10713 10714 10715 10715 10716 10717 10717 10718 10719 10720 10721 10721 10720 10721 10721 10721 10722
10707 10708 10707 10705 10705 10703 10701 10699 10698 10697 10695 10692 10690 10692 10692 10691 10691 10690 10689 10687 10686 10686 10686 10686 10686 10685 10685 10685 10684 10684 10683 10682 10681 10680 10678 10677 10677 10678 10679 10680 10681 10682 10684 10684 10685 10686 10689 10692 10693 10695 10697 10698 10699 10699 10700 10701 10703 10704 10706 10707 10708 10709 10709 10709 10709 10710 10710 10711 10712 10713 10713 10713 10714 10714 10715 10716 10717 10718 10718 10719 10720 10720 10720 10720 10721 10721 10721 10722
10702 10703 10702 10700 10700 10699 10697 10695 10693 10692 10690 10688 10686 10687 10689 10688 10687 10687 10686 10685 10683 10683 10684 10684 10684 10684 10683 10683 10683 10683 10683 10682 10681 10679 10677 10676 10676 10676 10678 10679 10679 10680 10681 10682 10683 10685 10687 10689 10691 10693 10694 10695 10697 10698 10699 10700 10702 10704 10705 10706 10707 10708 10708 10708 10709 10709 10710 10711 10711 10712 10713 10713 10713 10714 10715 10716 10716 10717 10718 10719 10720 10720 10720 10720 10721 10721 10721 10721
10697 10698 10698 10696 10694 10694 10693 10691 10689 10687 10686 10684 10682 10682 10684 10685 10684 10683 10683 10682 10680 10680 10682 10682 10682 10682 10682 10682 10682 10682 10681 10681 10680 10678 10677 10676 10675 10675 10675 10676 10678 10679 10679 10680 10682 10683 10685 10687 10690 10691 10692 10693 10695 10697 10698 10700 10701 10702 10703 10704 10706 10707 10708 10708 10708 10709 10709 10710 10711 10711 10712 10713 10713 10714 10714 10715 10716 10717 10718 10719 10719 10720 10720 10720 10720 10720 10720 10720
10691 10692 10692 10691 10689 10689 10688 10687 10685 10682 10681 10679 10678 10678 10679 10680 10680 10680 10680 10679 10678 10678 10679 10680 10680 10680 10680 10680 10680 10681 10680 10679 10679 10677 10676 10675 10674 10673 10673 10674 10675 10677 10678 10680 10681 10682 10683 10684 10687 10689 10690 10692 10694 10695 10697 10699 10700 10701 10701 10703 10705 10706 10707 10708 10709 10709 10709 10709 10710 10711 10712 10712 10712 10713 10714 10715 10715 10716 10717 10718 10718 10719 10719 10719 10719 10719 10719 10719
10686 10687 10687 10685 10684 10683 10682 10682 10680 10678 10676 10674 10673 10673 10674 10675 10676 10676 10676 10676 10675 10675 10676 10677 10678 10678 10677 10678 10678 10679 10679 10678 10677 10676 10675 10674 10672 10672 10672 10672 10673 10675 10677 10678 10679 10680 10681 10682 10684 10686 10688 10691 10693 10694 10696 10697 10698 10699 10700 10702 10704 10705 10706 10707 10708 10709 10709 10709 10709 10710 10711 10711 10711 10712 10713 10714 10715 10715 10716 10716 10717 10718 10718 10718 10718 10718 10718 10717
10680 10682 10682 10679 10678 10677 10677 10676 10675 10673 10671 10670 10669 10668 10669 10670 10671 10671 10672 10672 10671 10671 10672 10673 10675 10675 10675 10676 10676 10677 10677 10677 10676 10675 10674 10672 10671 10670 10670 10670 10670 10672 10674 10676 10677 10679 10680 10680 10681 10684 10686 10689 10691 10692 10693 10695 10696 10697 10698 10700 10702 10704 10705 10706 10707 10707 10708 10708 10708 10709 10709 10710 10710 10711 10712 10713 10713 10714 10715 10715 10716 10716 10716 10717 10717 10717 10717 10716
10673 10676 10676 10673 10671 10671 10671 10671 10670 10668 10667 10665 10664 10663 10664 10665 10665 10667 10668 10668 10667 10667 10668 10669 10671 10673 10674 10674 10674 10675 10675 10675 10675 10674 10673 10671 10670 10669 10669 10668 10669 10671 10672 10674 10675 10677 10678 10679 10680 10681 10683 10686 10688 10689 10691 10694 10695 10696 10697 10699 10700 10702 10703 10704 10705 10706 10706 10707 10707 10708 10708 10709 10709 10710 10711 10711 10712 10713 10713 10714 10715 10715 10715 10715 10715 10715 10715 10714
10666 10668 10670 10669 10665 10665 10666 10665 10664 10663 10662 10660 10659 10658 10658 10659 10660 10662 10663 10663 10662 10663 10664 10665 10668 10670 10671 10671 10672 10673 10673 10673 10673 10672 10671 10670 10668 10668 10667 10667 10668 10669 10671 10672 10673 10674 10676 10677 10678 10679 10680 10682 10684 10687 10689 10691 10692 10694 10695 10696 10698 10699 10701 10702 10703 10704 10705 10706 10706 10707 10707 10708 10708 10709 10710 10710 10711 10712 10712 10713 10714 10714 10714 10714 10714 10714 10714 10713
10659 10661 10663 10663 10660 10658 10659 10659 10658 10658 10657 10655 10654 10653 10652 10653 10655 10656 10658 10658 10658 10659 10660 10662 10664 10667 10668 10668 10669 10670 10671 10671 10672 10671 10670 10669 10667 10666 10666 10666 10667 10668 10669 10670 10670 10671 10673 10674 10675 10676 10678 10679 10681 10684 10686 10688 10690 10692 10693 10694 10696 10697 10698 10700 10701 10703 10703 10704 10704 10705 10706 10707 10707 10708 10709 10710 10710 10711 10711 10712 10713 10713 10713 10712 10712 10713 10712 10711
10652 10653 10655 10657 10655 10652 10652 10652 10651 10651 10651 10650 10648 10647 10646 10646 10648 10651 10652 10653 10654 10655 10657 10658 10660 10662 10664 10666 10667 10668 10669 10669 10670 10669 10668 10667 10666 10665 10665 10665 10666 10667 10667 10668 10668 10669 10671 10671 10672 10673 10675 10677 10679 10681 10683 10685 10688 10690 10691 10692 10694 10695 10696 10697 10699 10700 10701 10702 10702 10703 10704 10705 10706 10707 10708 10709 10709 10709 10710 10711 10711 10711 10711 10710 10711 10711 10711 10710
10644 10645 10646 10649 10649 10647 10645 10645 10645 10645 10645 10644 10643 10641 10640 10640 10641 10644 10647 10648 10649 10651 10653 10655 10655 10657 10660 10663 10664 10665 10666 10667 10667 10667 10666 10665 10665 10664 10663 10663 10664 10664 10665 10666 10666 10667 10668 10669 10670 10672 10674 10675 10677 10679 10680 10682 10684 10686 10688 10690 10691 10693 10694 10695 10696 10697 10699 10700 10701 10702 10703 10704 10704 10705 10706 10707 10708 10708 10709 10709 10710 10710 10709 10708 10709 10709 10709 10708
10636 10637 10638 10640 10642 10640 10638 10638 10638 10637 10637 10637 10636 10634 10633 10633 10634 10637 10642 10643 10643 10645 10649 10650 10650 10653 10657 10660 10661 10662 10663 10664 10665 10665 10664 10664 10663 10662 10662 10662 10662 10662 10663 10664 10665 10666 10667 10668 10670 10671 10673 10674 10676 10677 10678 10680 10682 10683 10685 10687 10688 10690 10691 10692 10693 10695 10697 10698 10699 10700 10701 10702 10703 10703 10704 10705 10706 10707 10707 10708 10708 10708 10708 10707 10707 10707 10707 10706
10628 10629 10630 10631 10633 10633 10632 10631 10631 10630 10629 10630 10630 10627 10626 10625 10626 10631 10636 10637 10636 10638 10641 10643 10644 10649 10654 10656 10658 10659 10660 10661 10662 10663 10663 10662 10661 10661 10660 10660 10660 10661 10662 10663 10663 10664 10666 10668 10669 10670 10671 10673 10674 10675 10676 10678 10680 10681 10682 10684 10685 10686 10687 10689 10691 10693 10695 10696 10697 10698 10699 10699 10700 10701 10702 10704 10705 10705 10705 10706 10707 10707 10706 10705 10705 10705 10705 10704
10620 10621 10622 10623 10624 10624 10624 10624 10624 10622 10622 10623 10623 10621 10618 10617 10619 10624 10628 10629 10629 10631 10634 10637 10640 10645 10649 10652 10654 10655 10657 10658 10660 10661 10661 10660 10659 10659 10659 10658 10659 10659 10660 10661 10662 10662 10664 10666 10667 10668 10670 10671 10672 10673 10674 10676 10677 10678 10679 10681 10682 10683 10685 10686 10688 10690 10692 10694 10694 10695 10696 10697 10698 10699 10701 10702 10703 10703 10704 10705 10705 10705 10704 10703 10703 10703 10703 10702